STARLINK-1646, 46351

Orbit data source: Space-Track

STARLINK-1646, 46351 is a payload satellite owned by SpaceX/Seattle (US) in LEO that was launched on Thu, 03 Sep 2020 UTC via an FALCON 9 launch vehicle from the Air Force Eastern Test Range (AFETR). Payload-class satellites include a variety of spacecraft equipped with specific instruments for various scientific and technological missions. These include communications satellites like Starlink; space stations such as the ISS; scientific satellites like the Hubble; Earth observation satellites from companies like Planet Labs, Umbra, and HawkEye 360; GPS; miniature CubeSats for education and research; and military/defense satellites.

Loading next visibility...
Identifier
46351, 2020-062AC
Orbit
LEO
Country
Flag of USUS
Related business
Manufacturer
SpaceX/Seattle
Mission
Operational Commercial Communications
Bus & Motor
STARLINK, Unknown motor
Mass
260 kg wet, ~248 kg dry
Launch date (UTC)
2020-09-03 (5 years ago)
Launch vehicle
FALCON 9
Launch site
Air Force Eastern Test Range (AFETR)
Object type
Payload
Rocket body
Debris
Shape & HBR
Box + 1 Pan, 10.1 m
Radar Cross Section
13.562 m², Large (>1 m²)

Expand to show TLE details & history
Last TLE update: 12 hours ago

TLE from 12 hours ago
0 STARLINK-1646
1 46351U 20062AC  25307.96927398  .00010741  00000-0  73838-3 0  9994
2 46351  53.0535 200.9952 0001515  85.0059 275.1103 15.06423458285651
Epoch: 2025-11-03T23:15Z
TLE epoch observation values (Epoch: 2025-11-03T23:15:45.271Z)
Latitude
-0.00003°
Longitude
168.59352°
Altitude
547.925 km
Speed
7.589 km/s
True Right ascension
13h 23m 58s
True Declination
0° 00' 00"
Sunlit
Object was in daylight at epoch
Visualization orbit readout
Latitude
Unknown
Longitude
Unknown
Altitude
Unknown
Speed
Unknown
Apparent Right ascension
Unknown
Apparent Declination
Unknown
Sunlit
N/A
Visualization observer readout
Local Sidereal Time
06:41:48
Azimuth
Unknown
Elevation
Unknown
Doppler factor
Unknown
Orbital elements
Apogee altitude
548.46 km
Perigee altitude
546.361 km
Semi-major axis
6,925.548 km
Eccentricity
0.00015
Inclination
53.0535°
RAAN
200.9952°
Arg. of periapsis
85.0059°
True anomaly
275.09301°
Mean anomaly
275.1103°
Eccentric anomaly
275.10165°
Mean motion
3.76584 °/min
Orbital period
95.6 mins
BSTAR
0.00073838
Loading maneuver chart data...
Computing Atmospheric mass density...
Loading historical data...
Loading historical data...
Loading historical data...
Loading historical data...
Loading historical data...
Loading historical data...
Loading historical data...

Documentation

Showing up to 5 results
|